Fort Wayne, IN

11:41 PM EST on December 14, 2019 (GMT -0500)
Fort Wayne International

Weather History for KFWA - June, 2019

Change the Weather History Date:

Sunday, June 9, 2019

  Actual Average Record
Temperature  
Mean Temperature 70 °F 68 °F  
Max Temperature 74 °F 79 °F 93 °F (1914)
Min Temperature 66 °F 58 °F 40 °F (1913)
Degree Days  
Heating Degree Days 0 1  
Month to date heating degree days 7 18  
Since 1 June heating degree days 7 18  
Since 1 July heating degree days 5854 6090  
Cooling Degree Days 5 5  
Month to date cooling degree days 42 36  
Year to date cooling degree days 110 93  
Since 1 June cooling degree days 42 36  
Growing Degree Days 20 (Base 50)    
Moisture  
Dew Point 64 °F    
Average Humidity 77    
Maximum Humidity 93    
Minimum Humidity 61    
Precipitation  
Precipitation 0.18 in 0.14 in 1.70 in (1996)
Month to date precipitation 0.42 1.39  
Year to date precipitation 18.29 16.19  
Sea Level Pressure  
Sea Level Pressure 29.96 in    
Wind  
Wind Speed 9 mph (ESE)    
Max Wind Speed 17 mph    
Max Gust Speed 22 mph    
Visibility 9 miles    
Events Rain    
T = Trace of Precipitation, MM = Missing Value Source: NWS Daily Summary

Daily Weather History Graph

Daily Weather History Graph

Search for Another Location

Airport or City:

Astronomy

Jun. 09, 2019 Rise Set
Actual Time 6:08 AM EDT 9:11 PM EDT
Civil Twilight 5:35 AM EDT 9:45 PM EDT
Nautical Twilight 4:52 AM EDT 10:27 PM EDT
Astronomical Twilight 4:02 AM EDT 11:17 PM EDT
Moon 12:48 PM EDT (6/9) 1:49 AM EDT (6/9)
Length of Visible Light 16h 09m
Length of Day
15h 03m
Waxing Crescent, 43% of the Moon is Illuminated
Jun 9
Waxing Crescent
Jun 10
First Quarter
Jun 17
Full
Jun 25
Last Quarter
Jul 2
New

Hourly Weather History & Observations

Time (EDT) Temp. Dew Point Humidity Pressure Visibility Wind Dir Wind Speed Gust Speed Precip Events Conditions
12:54 AM 70.0 °F 57.9 °F 65% 29.96 in 10.0 mi ENE 8.1 mph - N/A   Overcast
1:54 AM 70.0 °F 59.0 °F 68% 29.95 in 10.0 mi East 8.1 mph - N/A   Overcast
2:54 AM 71.1 °F 57.9 °F 63% 29.94 in 10.0 mi East 9.2 mph - N/A   Overcast
3:54 AM 69.1 °F 60.1 °F 73% 29.94 in 10.0 mi East 6.9 mph - 0.00 in Rain Light Rain
4:24 AM 69.1 °F 60.1 °F 73% 29.95 in 10.0 mi East 9.2 mph - 0.00 in Rain Light Rain
4:54 AM 69.1 °F 60.1 °F 73% 29.94 in 10.0 mi East 8.1 mph - 0.00 in Rain Light Rain
5:54 AM 66.0 °F 61.0 °F 84% 29.96 in 9.0 mi East 5.8 mph - 0.01 in Rain Light Rain
6:54 AM 66.0 °F 61.0 °F 84% 29.97 in 6.0 mi East 9.2 mph - 0.03 in Rain Light Rain
7:54 AM 66.0 °F 62.1 °F 87% 29.98 in 6.0 mi East 8.1 mph - 0.04 in Rain Light Rain
8:54 AM 66.0 °F 63.0 °F 90% 29.99 in 5.0 mi ESE 10.4 mph - 0.03 in Rain Light Rain
9:47 AM 66.9 °F 64.0 °F 90% 30.01 in 2.5 mi ESE 11.5 mph - 0.02 in Rain Rain
9:54 AM 66.9 °F 64.0 °F 90% 29.99 in 3.0 mi ESE 11.5 mph - 0.04 in Rain Rain
10:23 AM 68.0 °F 64.9 °F 90% 30.00 in 3.0 mi East 11.5 mph - 0.01 in Rain Light Rain
10:54 AM 70.0 °F 64.9 °F 84% 29.99 in 10.0 mi East 13.8 mph - 0.01 in   Overcast
11:54 AM 72.0 °F 64.9 °F 78% 29.98 in 10.0 mi ESE 12.7 mph - 0.00 in Rain Light Rain
12:25 PM 72.0 °F 64.9 °F 78% 30.00 in 10.0 mi ESE 15.0 mph - 0.00 in Rain Light Rain
12:31 PM 72.0 °F 66.0 °F 81% 29.99 in 10.0 mi ESE 16.1 mph - 0.00 in Rain Light Rain
12:38 PM 72.0 °F 64.9 °F 78% 29.99 in 10.0 mi ESE 13.8 mph - 0.00 in Rain Light Rain
12:51 PM 73.4 °F 66.2 °F 78% 29.99 in 10.0 mi ESE 13.8 mph - 0.00 in Rain Light Rain
12:54 PM 72.0 °F 64.9 °F 78% 29.98 in 10.0 mi ESE 12.7 mph - 0.00 in Rain Light Rain
1:54 PM 72.0 °F 66.0 °F 81% 29.97 in 7.0 mi ESE 11.5 mph - 0.00 in Rain Light Rain
2:54 PM 72.0 °F 66.9 °F 84% 29.96 in 10.0 mi ESE 9.2 mph - 0.00 in Rain Light Rain
3:54 PM 73.0 °F 66.9 °F 81% 29.95 in 10.0 mi ESE 11.5 mph - 0.00 in Rain Light Rain
4:54 PM 73.0 °F 66.9 °F 81% 29.95 in 10.0 mi ESE 13.8 mph - 0.00 in   Overcast
5:54 PM 73.9 °F 66.9 °F 79% 29.95 in 10.0 mi ESE 10.4 mph - N/A   Overcast
6:54 PM 73.0 °F 66.9 °F 81% 29.94 in 10.0 mi ESE 8.1 mph - N/A   Overcast
7:46 PM 73.9 °F 66.9 °F 79% 29.95 in 10.0 mi SE 5.8 mph - N/A   Overcast
7:54 PM 73.9 °F 66.9 °F 79% 29.94 in 10.0 mi SE 6.9 mph - N/A   Overcast
8:19 PM 73.0 °F 66.9 °F 81% 29.95 in 10.0 mi ESE 5.8 mph - N/A   Mostly Cloudy
8:27 PM 73.0 °F 66.9 °F 81% 29.95 in 10.0 mi ESE 5.8 mph - N/A   Overcast
8:54 PM 72.0 °F 66.9 °F 84% 29.93 in 10.0 mi East 5.8 mph - N/A   Mostly Cloudy
9:54 PM 70.0 °F 66.0 °F 87% 29.93 in 10.0 mi East 4.6 mph - N/A   Mostly Cloudy
10:54 PM 71.1 °F 66.9 °F 87% 29.93 in 10.0 mi East 4.6 mph - N/A   Overcast
11:54 PM 71.1 °F 68.0 °F 90% 29.92 in 8.0 mi East 3.5 mph - 0.00 in Rain Light Rain